SCO25TU EGBB-EGPF

Flight info

Callsign SCO25TU
Flight time 0h 45m
Altitude 26000
Route LUVUM DCT TNT N57 POL/N0386F240 N601 RIBEL DCT ASLIB
Aircraft A320/M-SDE3FGHIRWY/LB1

Departure

Time 2026-04-28 18:17
Airport Birmingham Airport (EGBB)

Arrival

Time 2026-04-28 19:03
Airport Glasgow Airport (EGPF)
Time Latitude Longitude Altitude Speed Heading
2026-04-28 18:01 52.45011 -1.73361 332 ft 0 kts 329°
2026-04-28 18:12 52.45008 -1.73357 333 ft 2 kts 329°
2026-04-28 18:12 52.44998 -1.73348 332 ft 1 kts 329°
2026-04-28 18:12 52.44995 -1.73344 331 ft 2 kts 329°
2026-04-28 18:13 52.44981 -1.73331 332 ft 2 kts 329°
2026-04-28 18:13 52.44968 -1.73312 332 ft 2 kts 292°
2026-04-28 18:13 52.44965 -1.73295 331 ft 1 kts 266°
2026-04-28 18:13 52.44964 -1.73303 331 ft 0 kts 266°
2026-04-28 18:14 52.44964 -1.73307 331 ft 2 kts 265°
2026-04-28 18:14 52.44932 -1.73456 335 ft 22 kts 252°
2026-04-28 18:15 52.44861 -1.73640 334 ft 18 kts 229°
2026-04-28 18:15 52.44754 -1.73716 336 ft 16 kts 215°
2026-04-28 18:15 52.44682 -1.73871 334 ft 19 kts 236°
2026-04-28 18:15 52.44668 -1.74008 332 ft 10 kts 309°
2026-04-28 18:16 52.44706 -1.74048 332 ft 0 kts 326°
2026-04-28 18:16 52.44755 -1.74103 332 ft 41 kts 326°
2026-04-28 18:17 52.45319 -1.74723 324 ft 151 kts 325°
2026-04-28 18:17 52.46375 -1.75881 758 ft 202 kts 326°
2026-04-28 18:17 52.47657 -1.77223 1704 ft 233 kts 327°
2026-04-28 18:17 52.49140 -1.78668 2785 ft 265 kts 331°
2026-04-28 18:18 52.50989 -1.79737 3470 ft 312 kts 352°
2026-04-28 18:18 52.53312 -1.79717 3985 ft 356 kts
2026-04-28 18:18 52.55855 -1.79010 4563 ft 383 kts 12°
2026-04-28 18:18 52.57603 -1.78398 5642 ft 376 kts 12°
2026-04-28 18:19 52.61156 -1.77144 6688 ft 398 kts 12°
2026-04-28 18:19 52.63751 -1.76242 8603 ft 373 kts 11°
2026-04-28 18:19 52.66255 -1.75541 10354 ft 371 kts
2026-04-28 18:19 52.68824 -1.74973 10983 ft 359 kts
2026-04-28 18:20 52.71205 -1.74543 11606 ft 338 kts
2026-04-28 18:20 52.73609 -1.74123 12242 ft 356 kts
2026-04-28 18:20 52.76129 -1.73640 12877 ft 371 kts
2026-04-28 18:20 52.78773 -1.73083 13523 ft 385 kts
2026-04-28 18:21 52.81431 -1.72491 14133 ft 396 kts
2026-04-28 18:21 52.84198 -1.71856 14771 ft 406 kts
2026-04-28 18:21 52.87028 -1.71196 15400 ft 415 kts
2026-04-28 18:21 52.89912 -1.70525 16028 ft 422 kts
2026-04-28 18:22 52.92870 -1.69843 17304 ft 413 kts
2026-04-28 18:22 52.95606 -1.69214 18657 ft 401 kts
2026-04-28 18:22 52.98381 -1.68584 19169 ft 404 kts
2026-04-28 18:22 53.01165 -1.67956 19658 ft 404 kts
2026-04-28 18:23 53.03960 -1.67643 20153 ft 401 kts 357°
2026-04-28 18:23 53.06726 -1.68156 20661 ft 400 kts 348°
2026-04-28 18:23 53.09392 -1.69454 21180 ft 401 kts 341°
2026-04-28 18:23 53.12004 -1.71075 21705 ft 400 kts 341°
2026-04-28 18:24 53.14612 -1.72693 22237 ft 399 kts 341°
2026-04-28 18:24 53.16373 -1.73785 22599 ft 399 kts 341°
2026-04-28 18:24 53.19810 -1.75916 23329 ft 397 kts 341°
2026-04-28 18:24 53.22388 -1.77519 23897 ft 394 kts 341°
2026-04-28 18:25 53.24948 -1.79118 24373 ft 393 kts 341°
2026-04-28 18:25 53.27501 -1.80716 24851 ft 391 kts 341°
2026-04-28 18:25 53.30050 -1.82313 25327 ft 390 kts 341°
2026-04-28 18:26 53.35119 -1.85478 26264 ft 390 kts 341°
2026-04-28 18:26 53.37682 -1.87075 26388 ft 397 kts 342°
2026-04-28 18:26 53.40293 -1.88709 26414 ft 403 kts 341°
2026-04-28 18:26 53.42937 -1.90373 26416 ft 409 kts 341°
2026-04-28 18:27 53.45604 -1.92059 26413 ft 412 kts 341°
2026-04-28 18:27 53.48300 -1.93764 26415 ft 414 kts 342°
2026-04-28 18:27 53.50996 -1.95467 26416 ft 415 kts 341°
2026-04-28 18:27 53.53706 -1.97179 26418 ft 416 kts 341°
2026-04-28 18:28 53.56409 -1.98889 26419 ft 416 kts 341°
2026-04-28 18:28 53.59117 -2.00601 26419 ft 416 kts 341°
2026-04-28 18:28 53.61834 -2.02320 26422 ft 416 kts 342°
2026-04-28 18:28 53.64538 -2.04034 26429 ft 416 kts 342°
2026-04-28 18:29 53.67242 -2.05757 26433 ft 416 kts 342°
2026-04-28 18:29 53.69950 -2.07490 26432 ft 415 kts 342°
2026-04-28 18:29 53.72648 -2.09218 26431 ft 415 kts 341°
2026-04-28 18:29 53.75348 -2.10954 26435 ft 415 kts 341°
2026-04-28 18:30 53.78043 -2.12741 26433 ft 415 kts 341°
2026-04-28 18:30 53.78946 -2.13353 26436 ft 416 kts 341°
2026-04-28 18:30 53.83402 -2.16421 26434 ft 416 kts 340°
2026-04-28 18:30 53.86074 -2.18277 26436 ft 416 kts 341°
2026-04-28 18:31 53.88750 -2.20128 26436 ft 415 kts 341°
2026-04-28 18:31 53.91422 -2.21971 26439 ft 415 kts 341°
2026-04-28 18:31 53.94102 -2.23814 26441 ft 415 kts 341°
2026-04-28 18:31 53.96776 -2.25649 26443 ft 414 kts 341°
2026-04-28 18:32 53.99448 -2.27482 26447 ft 414 kts 341°
2026-04-28 18:32 54.02094 -2.29414 26447 ft 416 kts 337°
2026-04-28 18:32 54.04649 -2.31779 26445 ft 417 kts 335°
2026-04-28 18:32 54.07190 -2.34161 26449 ft 417 kts 335°
2026-04-28 18:33 54.09732 -2.36550 26448 ft 417 kts 335°
2026-04-28 18:33 54.12269 -2.38932 26448 ft 416 kts 335°
2026-04-28 18:33 54.14800 -2.41307 26451 ft 416 kts 335°
2026-04-28 18:33 54.17334 -2.43691 26453 ft 416 kts 335°
2026-04-28 18:34 54.19875 -2.46082 26450 ft 416 kts 335°
2026-04-28 18:34 54.22410 -2.48471 26452 ft 416 kts 335°
2026-04-28 18:34 54.24946 -2.50863 26452 ft 416 kts 335°
2026-04-28 18:34 54.27474 -2.53251 26453 ft 416 kts 335°
2026-04-28 18:35 54.30002 -2.55641 26452 ft 416 kts 335°
2026-04-28 18:35 54.32541 -2.58042 26456 ft 416 kts 335°
2026-04-28 18:35 54.35073 -2.60451 26457 ft 416 kts 335°
2026-04-28 18:35 54.37599 -2.62863 26459 ft 416 kts 335°
2026-04-28 18:36 54.40121 -2.65274 26461 ft 415 kts 335°
2026-04-28 18:36 54.42644 -2.67681 26459 ft 416 kts 335°
2026-04-28 18:36 54.45171 -2.70091 26461 ft 415 kts 335°
2026-04-28 18:36 54.47700 -2.72510 26458 ft 416 kts 335°
2026-04-28 18:37 54.50231 -2.74931 26460 ft 416 kts 335°
2026-04-28 18:37 54.52760 -2.77352 26458 ft 416 kts 335°
2026-04-28 18:37 54.55285 -2.79779 26460 ft 416 kts 335°
2026-04-28 18:37 54.57814 -2.82214 26456 ft 416 kts 335°
2026-04-28 18:38 54.60344 -2.84653 26458 ft 416 kts 335°
2026-04-28 18:38 54.62863 -2.87085 26464 ft 415 kts 335°
2026-04-28 18:38 54.65382 -2.89522 26464 ft 415 kts 335°
2026-04-28 18:38 54.67906 -2.91965 26460 ft 415 kts 336°
2026-04-28 18:39 54.70410 -2.94393 26458 ft 407 kts 336°
2026-04-28 18:39 54.72811 -2.96738 26468 ft 390 kts 336°
2026-04-28 18:39 54.75172 -2.99037 26468 ft 389 kts 336°
2026-04-28 18:39 54.77531 -3.01329 26460 ft 389 kts 336°
2026-04-28 18:40 54.79889 -3.03618 26460 ft 389 kts 336°
2026-04-28 18:40 54.81455 -3.05144 26470 ft 389 kts 336°
2026-04-28 18:40 54.83816 -3.07449 26404 ft 389 kts 336°
2026-04-28 18:40 54.86163 -3.09744 25928 ft 386 kts 336°
2026-04-28 18:41 54.88494 -3.12023 25434 ft 383 kts 336°
2026-04-28 18:41 54.90802 -3.14284 24953 ft 377 kts 336°
2026-04-28 18:41 54.93035 -3.16487 24481 ft 361 kts 335°
2026-04-28 18:41 54.95177 -3.18603 24023 ft 351 kts 335°
2026-04-28 18:42 54.97296 -3.20693 23466 ft 349 kts 335°
2026-04-28 18:42 54.99406 -3.22774 22921 ft 348 kts 335°
2026-04-28 18:42 55.01513 -3.24849 22378 ft 347 kts 335°
2026-04-28 18:42 55.03609 -3.26913 21856 ft 346 kts 335°
2026-04-28 18:43 55.05702 -3.28978 21335 ft 345 kts 335°
2026-04-28 18:43 55.07792 -3.31045 20826 ft 345 kts 335°
2026-04-28 18:43 55.09876 -3.33112 20507 ft 345 kts 334°
2026-04-28 18:43 55.11955 -3.35182 20460 ft 345 kts 334°
2026-04-28 18:44 55.14044 -3.37264 20468 ft 345 kts 334°
2026-04-28 18:44 55.18219 -3.41429 20471 ft 345 kts 334°
2026-04-28 18:44 55.20306 -3.43504 20189 ft 344 kts 334°
2026-04-28 18:45 55.22380 -3.45570 19702 ft 343 kts 334°
2026-04-28 18:45 55.24452 -3.47631 19219 ft 342 kts 334°
2026-04-28 18:45 55.26515 -3.49694 18743 ft 341 kts 334°
2026-04-28 18:45 55.28563 -3.51752 18189 ft 336 kts 334°
2026-04-28 18:46 55.30572 -3.53776 17667 ft 329 kts 334°
2026-04-28 18:46 55.32534 -3.55754 17134 ft 322 kts 334°
2026-04-28 18:46 55.34468 -3.57697 16615 ft 317 kts 334°
2026-04-28 18:46 55.36340 -3.59578 16111 ft 313 kts 334°
2026-04-28 18:47 55.38216 -3.61467 15611 ft 309 kts 334°
2026-04-28 18:47 55.40066 -3.63329 15114 ft 300 kts 334°
2026-04-28 18:47 55.41837 -3.65119 14631 ft 289 kts 334°
2026-04-28 18:47 55.43553 -3.66859 14135 ft 280 kts 334°
2026-04-28 18:48 55.45220 -3.68549 13598 ft 273 kts 334°
2026-04-28 18:48 55.46850 -3.70201 13066 ft 267 kts 334°
2026-04-28 18:48 55.48447 -3.71820 12552 ft 263 kts 333°
2026-04-28 18:48 55.50021 -3.73415 12031 ft 259 kts 333°
2026-04-28 18:49 55.51579 -3.74996 11528 ft 258 kts 333°
2026-04-28 18:49 55.52632 -3.76064 11189 ft 260 kts 333°
2026-04-28 18:49 55.54728 -3.78188 10528 ft 264 kts 333°
2026-04-28 18:49 55.56328 -3.79811 10012 ft 266 kts 333°
2026-04-28 18:50 55.57913 -3.81499 9547 ft 266 kts 325°
2026-04-28 18:50 55.59032 -3.83998 9469 ft 258 kts 295°
2026-04-28 18:50 55.59519 -3.87068 9474 ft 263 kts 285°
2026-04-28 18:50 55.59887 -3.90243 9475 ft 263 kts 284°
2026-04-28 18:51 55.60243 -3.93430 9228 ft 266 kts 284°
2026-04-28 18:51 55.60602 -3.96651 8702 ft 268 kts 284°
2026-04-28 18:51 55.60959 -3.99836 8473 ft 258 kts 284°
2026-04-28 18:51 55.61306 -4.02949 8471 ft 259 kts 284°
2026-04-28 18:52 55.61656 -4.06076 8471 ft 259 kts 284°
2026-04-28 18:52 55.62007 -4.09213 8473 ft 260 kts 284°
2026-04-28 18:52 55.62356 -4.12350 8475 ft 260 kts 284°
2026-04-28 18:52 55.62704 -4.15482 8466 ft 260 kts 284°
2026-04-28 18:53 55.63053 -4.18623 8468 ft 260 kts 284°
2026-04-28 18:53 55.63403 -4.21765 8472 ft 260 kts 284°
2026-04-28 18:53 55.63756 -4.24936 8027 ft 266 kts 284°
2026-04-28 18:53 55.64120 -4.28168 7419 ft 270 kts 284°
2026-04-28 18:54 55.64494 -4.31439 6820 ft 273 kts 284°
2026-04-28 18:54 55.64880 -4.34754 6184 ft 275 kts 284°
2026-04-28 18:54 55.65274 -4.38076 5574 ft 277 kts 284°
2026-04-28 18:54 55.65670 -4.41359 5103 ft 262 kts 284°
2026-04-28 18:55 55.66033 -4.44356 5008 ft 245 kts 284°
2026-04-28 18:55 55.66271 -4.46319 5013 ft 247 kts 284°
2026-04-28 18:55 55.66753 -4.50302 5013 ft 247 kts 284°
2026-04-28 18:55 55.67113 -4.53266 5011 ft 247 kts 284°
2026-04-28 18:56 55.67482 -4.56239 5010 ft 246 kts 287°
2026-04-28 18:56 55.68231 -4.58944 4626 ft 250 kts 309°
2026-04-28 18:56 55.69357 -4.61338 3691 ft 254 kts 314°
2026-04-28 18:56 55.70517 -4.63621 3175 ft 239 kts 314°
2026-04-28 18:57 55.71584 -4.65705 3050 ft 218 kts 314°
2026-04-28 18:57 55.72564 -4.67641 3009 ft 204 kts 314°
2026-04-28 18:57 55.73521 -4.69539 3010 ft 207 kts 314°
2026-04-28 18:57 55.74482 -4.71439 3017 ft 207 kts 314°
2026-04-28 18:58 55.75501 -4.73237 3024 ft 205 kts 329°
2026-04-28 18:58 55.76851 -4.73999 2529 ft 216 kts
2026-04-28 18:58 55.78275 -4.73159 2112 ft 218 kts 36°
2026-04-28 18:58 55.79112 -4.71049 2034 ft 207 kts 73°
2026-04-28 18:59 55.79281 -4.68518 2039 ft 205 kts 88°
2026-04-28 18:59 55.79264 -4.65971 2038 ft 208 kts 86°
2026-04-28 18:59 55.79322 -4.63413 2034 ft 207 kts 84°
2026-04-28 18:59 55.79413 -4.60863 2034 ft 207 kts 83°
2026-04-28 19:00 55.79677 -4.58380 2038 ft 203 kts 64°
2026-04-28 19:00 55.80444 -4.56283 2041 ft 202 kts 50°
2026-04-28 19:00 55.81338 -4.54353 1764 ft 204 kts 47°
2026-04-28 19:00 55.82278 -4.52516 1380 ft 196 kts 46°
2026-04-28 19:01 55.83163 -4.50852 1078 ft 171 kts 46°
2026-04-28 19:01 55.83942 -4.49396 794 ft 159 kts 46°
2026-04-28 19:01 55.84700 -4.47983 557 ft 158 kts 46°
2026-04-28 19:01 55.85456 -4.46572 336 ft 153 kts 46°
2026-04-28 19:02 55.86131 -4.45317 143 ft 129 kts 45°
2026-04-28 19:02 55.86705 -4.44246 43 ft 112 kts 46°
2026-04-28 19:02 55.87228 -4.43264 39 ft 108 kts 46°
2026-04-28 19:02 55.87742 -4.42300 30 ft 88 kts 45°
2026-04-28 19:03 55.87920 -4.41905 29 ft 40 kts 90°
2026-04-28 19:03 55.87893 -4.41737 28 ft 0 kts 149°
2026-04-28 19:03 55.87855 -4.41732 28 ft 3 kts 214°
2026-04-28 19:03 55.87715 -4.41989 32 ft 44 kts 224°
2026-04-28 19:04 55.87552 -4.42286 30 ft 27 kts 226°
2026-04-28 19:04 55.87516 -4.42350 31 ft 0 kts 225°
2026-04-28 19:04 55.87491 -4.42395 32 ft 26 kts 225°
2026-04-28 19:05 55.87269 -4.42666 30 ft 35 kts 188°
2026-04-28 19:05 55.87016 -4.42838 29 ft 55 kts 201°
2026-04-28 19:05 55.86827 -4.43115 32 ft 19 kts 285°
2026-04-28 19:05 55.86826 -4.43148 32 ft 0 kts 255°
2026-04-28 19:07 55.86822 -4.43172 32 ft 12 kts 254°
2026-04-28 19:07 55.86698 -4.43297 31 ft 6 kts 137°
2026-04-28 19:07 55.86634 -4.43203 30 ft 10 kts 179°
2026-04-28 19:07 55.86614 -4.43230 29 ft 3 kts 236°
2026-04-28 19:08 55.86611 -4.43246 30 ft 3 kts 254°
2026-04-28 19:08 55.86606 -4.43277 32 ft 0 kts 254°